Regional Weather Roundup
Issued by NWS

Home | Current Version | Previous Version | Text Only | Print | Product List | Glossary Off
Versions: 1 2 3 4 5 6 7 8 9 10 11 12 13 14 15 16 17 18 19 20 21 22 23 24 25 26 27 28 29 30 31 32 33 34 35 36 37 38 39 40 41 42 43 44 45 46 47 48 49 50

141
ASUS45 KCYS 131310
RWRWY

WYOMING REGIONAL WEATHER ROUNDUP
NATIONAL WEATHER SERVICE CHEYENNE WY
600 AM MST WED DEC 13 2017

NOTE:  "FAIR" INDICATES FEW OR NO CLOUDS BELOW 12,000 FEET
WITH NO SIGNIFICANT WEATHER AND/OR OBSTRUCTIONS TO VISIBILITY.

WYZ001-131400-
YELLOWSTONE NATIONAL PARK

CITY           SKY/WX    TMP DP  RH WIND       PRES   REMARKS
LK YELLOWSTONE   N/A      7   4  87 CALM      30.29F
W YELLOWSTONE  NOT AVBL

$$
WYZ002>013-054>058-071-098>099-131400-
NORTHERN WYOMING

CITY           SKY/WX    TMP DP  RH WIND       PRES   REMARKS
JACKSON        CLOUDY    18  14  84 CALM      30.29S
CODY           FAIR      31  10  41 CALM      30.20S
GREYBULL       FAIR      24  14  65 SE9       30.17R WCI  14
WORLAND        FAIR      24  16  71 SW10      30.18S WCI  14
SHERIDAN       FAIR      33  16  49 NW10      30.17R WCI  25
BUFFALO        FAIR      38  14  37 N16       30.13F WCI  29
GILLETTE       FAIR      35  13  40 NW17      30.13S WCI  25
HULETT         FAIR      36  18  48 NW10      30.12R WCI  28
NEWCASTLE      FAIR      34  14  44 NW22G28   30.07S WCI  22

$$
WYZ014>020-022>026-101>103-131400-
CENTRAL WYOMING

CITY           SKY/WX    TMP DP  RH WIND       PRES   REMARKS
BIG PINEY      CLOUDY    21   8  57 W3        30.23F
PINEDALE       CLOUDY    30   5  34 NW14      30.23S WCI  20
DUBOIS         FAIR      32   0  25 NW13      30.19S WCI  22
LANDER         CLOUDY    36  12  37 SW3       30.19F
RIVERTON       CLOUDY    35  12  38 N3        30.20S
CASPER         FAIR      23  17  78 W5        30.18R WCI  17
DOUGLAS        FAIR      34  13  41 NW14      30.15S WCI  25

$$
WYZ021-027>030-104>119-131400-
SOUTHERN WYOMING

CITY           SKY/WX    TMP DP  RH WIND       PRES   REMARKS
EVANSTON       CLOUDY    30   8  39 S5        30.28F WCI  25
FORT BRIDGER   CLOUDY    35   4  27 W12       30.29F WCI  27
ROCK SPRINGS   CLOUDY    33   2  26 S3        30.24S
DIXON          CLOUDY    21  15  75 SE3       30.27S
RAWLINS        CLOUDY    31  10  41 W6        30.21F WCI  25
SARATOGA       FAIR      23  12  63 SE7       30.22S WCI  15
LARAMIE        FAIR      29   5  36 W12       30.16S WCI  19
CHEYENNE       FAIR      35   9  33 NW6       30.14R WCI  30
TORRINGTON     FAIR      40  14  34 NW15      30.09R WCI  32
PINE BLUFFS    FAIR      34  10  37 MISG      30.12S

$$




USA.gov is the U.S. government's official web portal to all federal, state and local government web resources and services.